Tracking 20376 objects as of 20-Feb-2020
HD Live streaming from Space Station
objects crossing your sky now
Track the group of recently launched Starlink satellites

WORLDVIEW 2 DEB

Track WORLDVIEW 2 DEB now!
10-day predictions


NORAD ID: 43392
Int'l Code: 2009-055T
Perigee: 729.5 km
Apogee: 757.6 km
Inclination: 98.6 °
Period: 99.5 minutes
Semi major axis: 7114 km
RCS: Unknown
Launch date: October 8, 2009
Source: United States (US)
Launch site: AIR FORCE WESTERN TEST RANGE (AFWTR)

Note: This is SATELLITE DEBRIS
aabbcc
Your satellite tracking list
Your tracking list is empty




NASA's NSSDC Master Catalog

Two Line Element Set (TLE):
1 43392U 09055T   20051.09405282  .00003481  00000-0  97272-3 0  9994
2 43392  98.6060 151.0553 0019725 347.3378  12.7316 14.46719883182788
Source of the keplerian elements: AFSPC